Temperature
17 16 16 15 15 15 14 14 14 14 13 13 11 11 11 11 11 11 11 11 11 11 11 11 11 12 12 12 11 12 13 13 13 13 13 13 12 11 11 12 12 12 12
18 17 16 15 15 14 14 14 13 13 13 12 11 11 11 11 11 11 11 11 11 10 11 11 11 11 11 11 11 12 13 13 12 12 12 12 12 12 12 12 12 12 12
18 17 16 15 15 14 14 13 13 13 13 11 11 11 11 11 11 10 10 10 10 10 11 11 11 11 11 11 12 13 12 12 11 11 12 12 12 13 13 13 12 12 12
17 17 16 15 15 14 14 13 13 13 12 11 11 11 11 11 11 11 11 11 10 11 12 12 11 11 11 11 12 12 12 11 11 12 12 12 12 12 13 13 12 12 12
18 17 16 15 15 14 14 13 13 13 12 11 11 11 11 11 11 11 12 12 12 13 13 13 12 11 11 11 12 12 12 11 11 12 12 12 12 12 13 13 13 13 13
18 17 16 15 15 14 14 13 13 13 12 11 11 11 11 11 11 12 13 13 13 13 13 13 13 12 12 13 13 13 12 12 11 12 12 12 12 12 12 13 13 13 13
18 17 16 15 15 15 14 14 13 13 13 11 11 11 11 11 12 13 13 13 13 13 13 13 13 14 14 14 13 13 12 12 12 12 12 12 12 12 12 13 13 13 13
18 17 16 15 15 15 14 14 14 14 14 12 11 12 13 13 13 13 13 13 13 13 13 13 14 14 14 14 14 13 12 12 13 13 13 12 12 12 12 13 13 13 12
18 17 16 15 15 15 15 15 15 15 15 13 13 14 14 14 14 14 13 13 12 12 13 13 13 13 14 14 14 13 13 12 12 13 13 12 12 12 13 13 13 13 12
18 17 17 16 16 16 16 16 16 16 15 14 15 15 15 15 14 14 13 13 13 13 12 12 13 13 14 14 14 13 13 12 12 12 13 13 12 12 13 13 13 13 13
19 18 17 17 17 16 16 16 17 17 16 16 15 15 15 15 15 14 13 13 13 13 13 13 13 14 14 14 14 14 13 13 12 12 13 13 13 12 13 13 13 13 13
21 19 18 18 17 17 17 17 17 17 17 16 16 16 15 15 15 15 15 15 14 14 14 14 14 14 14 14 14 14 13 13 13 12 13 13 13 13 12 13 13 13 13
21 20 20 19 18 17 17 17 17 17 17 17 16 16 16 16 16 16 16 16 16 15 15 15 15 14 14 14 14 14 14 13 13 13 13 13 13 13 13 13 13 13 13
21 20 20 19 18 18 18 17 17 17 17 17 17 17 16 16 17 17 16 16 16 16 15 15 15 15 14 14 14 14 14 14 14 13 13 13 13 13 13 13 13 13 13
21 20 20 19 19 18 18 18 17 17 17 17 17 17 17 17 17 17 17 17 16 16 16 15 15 15 15 14 14 14 14 13 13 13 13 13 13 13 13 13 13 13 13
22 21 20 19 19 19 18 18 18 17 18 17 17 17 17 17 17 17 17 17 17 16 16 15 15 15 15 14 14 14 14 14 13 13 13 13 13 13 13 13 13 13 13
22 21 21 20 19 19 19 19 18 18 18 18 18 18 17 17 17 17 17 17 17 16 15 15 14 14 14 14 14 14 14 14 13 13 13 13 13 13 13 13 12 12 12
20 21 21 20 20 20 19 19 19 18 18 18 18 18 17 17 17 16 16 16 15 14 14 14 13 13 13 13 13 14 13 13 13 13 12 12 12 12 12 12 12 12 12
21 21 20 20 20 20 19 19 19 18 18 18 18 18 17 16 16 15 15 15 14 14 14 13 13 13 13 13 12 12 12 12 13 12 12 12 12 12 12 12 12 12 12
21 21 20 20 19 19 19 18 18 18 18 18 18 17 17 16 16 15 14 14 14 13 13 13 12 12 12 12 11 11 11 12 12 12 12 11 11 12 11 11 11 11 11
20 20 19 19 19 19 18 18 18 18 18 18 17 17 16 15 15 14 14 13 13 13 13 13 12 12 12 11 11 11 11 11 11 11 11 11 12 12 12 11 11 11 11
19 19 19 19 19 19 18 18 17 17 17 17 16 15 15 14 14 14 13 13 13 13 13 13 12 12 12 11 11 10 10 11 11 11 11 11 12 12 11 12 12 11 11
19 19 19 18 18 18 18 17 17 16 16 15 15 15 14 14 13 13 13 13 13 13 13 13 13 12 12 12 11 10 10 10 11 11 11 11 11 11 11 11 11 11 11
17 17 17 17 17 17 16 16 16 15 14 14 14 14 13 13 13 13 13 13 12 12 12 13 13 12 12 12 12 11 11 10 10 10 11 11 11 10 10 10 10 10 10
16 16 16 16 16 15 15 15 14 14 13 13 13 13 13 12 12 12 12 12 12 12 12 12 12 12 12 12 12 11 11 11 10 10 10 11 11 11 11 10 10 10 10
15 15 15 15 15 14 14 14 14 13 13 13 13 13 12 12 12 12 11 11 11 11 11 11 11 11 11 11 11 11 11 11 11 10 10 11 11 12 12 11 11 11 11
Wind_Speed
6 12 19 17 17 17 15 13 10 9 8 7 7 6 5 5 5 5 5 4 4 3 3 5 5 6 7 8 8 7 8 8 8 7 5 5 6 6 8 8 7 4 6
10 16 19 18 19 18 15 13 11 10 9 7 6 6 5 5 6 6 5 4 4 4 4 5 6 6 7 9 8 6 6 7 6 4 3 2 4 6 6 7 8 8 9
12 15 18 18 19 17 15 13 11 10 9 7 6 7 7 6 6 5 5 4 4 5 4 3 5 6 7 8 8 5 4 4 2 0 3 3 2 6 6 6 7 8 8
14 15 16 19 19 17 15 13 11 10 9 7 7 8 8 7 6 5 5 5 5 5 5 3 4 6 5 6 5 3 2 0 3 4 5 7 3 6 6 5 5 5 5
12 15 17 21 19 17 15 13 11 10 9 8 8 8 9 8 6 6 6 6 6 5 5 4 3 5 4 4 4 2 2 2 5 7 4 6 3 5 4 4 5 5 4
11 15 19 22 20 18 16 14 13 12 10 9 8 8 8 8 8 7 7 7 6 6 5 5 3 4 4 3 4 4 4 4 6 6 3 6 5 6 6 5 5 5 5
11 14 20 22 20 19 18 16 15 13 11 10 9 8 8 8 8 7 7 7 7 6 5 6 6 6 6 7 7 7 5 4 4 3 7 8 7 7 7 7 6 5 5
13 12 18 21 21 20 19 17 16 14 12 12 11 9 8 8 8 8 7 8 8 8 8 7 8 9 9 9 10 9 8 4 1 1 8 10 10 9 8 8 7 6 5
10 10 12 16 18 19 19 18 16 15 14 14 13 12 10 9 9 9 8 8 9 10 9 9 10 11 11 11 12 11 10 8 3 3 7 10 12 11 10 10 9 8 8
9 11 9 13 15 15 17 18 17 16 14 14 14 13 12 10 10 10 10 10 11 12 11 11 12 13 13 14 14 13 13 11 6 6 8 12 15 14 13 12 12 11 11
9 9 10 10 12 14 15 16 17 16 15 14 15 15 13 12 11 12 12 13 14 14 14 14 14 14 15 15 15 14 14 11 10 8 8 13 18 17 16 15 15 14 13
12 11 9 12 11 12 13 13 14 14 14 14 13 14 13 13 13 13 14 16 16 17 17 16 16 15 15 12 13 14 11 13 12 11 12 15 20 20 18 18 17 17 16
11 13 13 12 10 10 8 9 10 11 12 13 15 15 14 13 12 12 12 14 16 17 14 14 13 12 11 10 10 11 12 13 12 13 14 17 22 23 21 21 21 20 19
9 11 13 14 12 10 9 7 8 7 8 8 13 16 13 7 7 8 8 11 12 12 10 10 8 10 10 12 11 10 11 12 13 14 17 20 24 26 25 23 24 23 23
10 11 11 13 14 12 10 7 7 7 8 11 13 16 16 8 8 6 6 8 10 11 8 6 6 7 7 8 10 10 9 12 15 15 16 20 25 29 28 27 26 26 26
14 14 13 13 14 13 12 11 10 9 10 11 13 16 18 14 8 9 9 9 9 11 11 9 8 9 10 9 10 10 10 12 14 16 17 20 24 28 30 29 29 29 29
14 13 14 15 13 14 14 14 11 9 10 9 11 16 18 17 12 9 9 10 8 9 9 8 7 6 8 9 11 12 11 11 12 14 17 18 19 24 29 32 32 31 31
9 10 13 13 14 15 14 13 10 8 9 9 11 12 16 17 14 7 9 9 6 6 5 7 7 7 9 10 10 10 10 11 14 13 15 16 16 18 23 31 33 34 34
4 7 9 11 13 15 14 11 10 9 11 7 8 9 11 13 13 8 10 9 6 6 8 9 9 7 10 11 10 10 10 11 12 13 14 13 15 18 19 24 29 32 34
8 6 3 5 8 9 8 6 5 6 8 6 7 8 11 11 12 9 10 10 8 7 9 8 10 9 9 8 10 13 11 12 12 13 14 13 13 16 19 21 20 23 30
10 10 9 7 3 3 4 4 5 7 6 6 7 7 8 9 10 9 11 10 9 11 13 12 11 11 11 6 6 9 11 14 18 15 12 14 16 16 15 17 17 18 18
10 10 10 10 8 3 2 3 2 2 3 4 4 5 7 8 8 10 12 12 11 12 13 13 11 10 10 7 7 7 7 8 11 13 15 16 17 14 16 17 14 14 14
12 11 10 11 11 10 6 3 4 4 3 3 3 4 6 6 7 10 12 13 12 12 13 14 13 14 15 11 12 12 10 9 5 5 8 12 13 14 15 14 16 16 15
10 9 11 11 12 12 10 9 8 6 4 4 4 4 7 7 7 7 9 10 11 10 12 14 13 14 15 15 12 14 15 10 10 8 7 8 11 14 14 12 14 15 14
8 9 10 11 13 12 12 11 10 8 5 4 5 8 8 8 8 9 9 8 9 8 10 12 13 14 14 15 14 12 14 15 17 15 18 13 9 11 12 13 14 14 14
8 9 10 11 12 11 12 11 11 10 9 9 9 9 8 6 7 11 11 10 9 9 10 11 11 13 14 15 15 14 13 11 11 14 17 17 18 14 12 13 15 14 13
Wind_Direction
187 173 175 171 164 155 152 155 162 163 156 154 155 153 137 134 129 121 113 114 116 106 120 150 145 131 130 124 118 121 119 113 105 92 89 92 97 94 75 70 61 73 103
159 166 171 171 163 158 158 162 168 164 156 160 162 149 143 141 135 127 124 127 128 119 126 147 156 143 143 136 130 134 131 123 115 103 83 79 104 107 94 78 73 86 94
147 163 168 169 163 161 162 165 169 166 163 166 168 158 155 145 136 133 133 137 135 130 135 141 149 141 134 135 136 145 145 133 128 319 257 247 174 125 115 98 85 86 89
151 162 166 167 164 164 165 168 170 171 171 174 179 175 163 154 147 145 149 159 155 151 154 159 154 147 147 145 147 166 178 57 7 348 230 216 205 130 118 113 110 99 95
152 161 165 166 168 168 169 171 172 174 175 183 193 187 173 165 164 164 166 167 163 163 167 170 160 159 166 162 166 214 270 328 359 360 162 175 160 134 132 131 130 119 111
157 161 166 169 172 172 172 174 174 179 185 191 188 183 182 180 178 177 177 177 176 176 178 181 182 179 183 208 219 230 268 320 1 351 199 175 168 160 157 151 140 133 133
162 166 171 174 176 177 177 179 181 185 191 193 184 187 192 190 188 190 192 192 190 191 195 200 205 208 208 221 230 232 255 309 356 348 200 194 188 179 178 174 166 154 150
165 171 176 179 179 180 181 184 187 191 197 197 195 197 201 204 207 205 209 210 208 206 207 212 217 221 221 223 231 235 247 267 316 354 202 204 198 191 194 192 190 184 179
165 166 174 179 181 183 185 187 191 197 205 207 203 207 214 216 217 216 219 220 219 218 219 223 227 228 228 229 234 241 251 261 253 224 222 222 208 202 204 204 204 201 199
168 172 173 177 181 185 189 192 194 199 207 210 207 207 212 212 216 222 223 224 222 221 225 230 234 235 232 232 235 240 250 262 255 229 238 233 217 211 211 211 212 211 211
183 184 180 181 185 187 192 198 198 201 206 211 210 208 212 211 215 225 225 224 222 221 226 232 236 237 236 234 236 238 246 255 257 242 240 236 227 221 218 216 218 219 219
196 195 191 191 192 189 196 200 200 203 209 212 208 208 213 215 219 226 228 226 226 226 228 234 238 238 238 234 238 241 243 249 254 251 248 243 234 229 225 220 221 224 225
195 196 198 198 198 192 195 193 196 202 209 211 207 208 214 219 226 232 233 233 230 230 231 238 244 240 236 231 236 242 244 246 248 251 250 245 235 231 230 226 224 226 228
203 201 199 201 201 199 196 195 194 200 208 211 212 213 215 222 228 231 231 225 220 223 225 230 235 239 239 239 239 242 244 243 244 246 246 245 238 237 236 234 231 230 231
217 216 202 194 200 199 197 199 198 203 209 213 216 218 218 222 230 228 227 223 220 220 221 222 228 233 236 240 240 239 244 242 240 242 245 247 240 238 240 241 239 237 236
222 221 212 202 196 192 196 200 202 203 209 212 218 222 220 224 226 227 226 224 223 221 222 222 223 229 233 237 240 237 239 241 240 241 242 246 242 238 241 244 245 244 243
229 224 216 212 201 197 199 201 202 203 206 212 220 223 224 225 227 228 231 232 229 223 224 230 234 236 240 239 244 244 243 240 241 241 242 241 242 241 241 246 248 249 249
248 236 225 217 208 207 207 204 205 204 207 216 219 222 227 228 225 222 234 242 235 224 220 228 229 233 240 240 244 246 246 245 246 247 247 245 242 244 245 247 249 251 253
286 248 233 223 215 212 212 208 207 206 213 217 216 222 227 228 225 220 235 240 223 221 227 234 232 226 241 243 246 251 250 250 251 249 247 244 244 245 245 249 248 248 250
13 15 346 246 233 221 215 213 215 221 226 221 219 226 228 228 225 223 239 242 226 230 239 235 242 237 243 248 254 258 255 252 253 251 250 250 248 245 245 246 248 249 248
19 21 20 19 334 202 183 197 211 227 230 231 233 235 236 235 231 228 241 243 232 237 243 235 235 240 247 232 247 265 262 255 256 256 250 252 253 248 245 245 246 247 249
24 21 24 23 18 17 194 181 182 211 240 246 259 259 247 241 236 238 240 246 241 242 245 242 232 241 250 220 228 251 271 268 254 248 246 247 250 250 251 249 246 245 244
27 22 31 29 30 27 33 76 68 54 22 8 333 303 291 279 268 259 256 254 251 243 248 247 237 238 252 246 231 239 255 262 284 260 240 244 246 247 248 249 249 249 247
19 21 32 35 38 34 39 54 59 55 30 353 337 335 330 324 314 302 293 281 273 262 255 255 248 243 246 254 248 237 240 246 256 275 256 236 235 244 246 246 249 250 248
24 28 32 39 40 35 41 49 56 52 35 11 9 9 3 354 355 354 345 335 315 296 279 272 267 258 252 251 253 250 247 247 246 256 272 272 254 241 238 239 245 248 244
31 33 34 41 38 31 35 39 44 43 33 28 18 12 4 355 355 1 355 352 344 336 322 308 294 282 273 267 263 259 254 249 246 250 261 264 268 265 240 237 242 245 239
Height
1507 1509 1510 1512 1514 1515 1516 1517 1517 1516 1515 1514 1514 1515 1515 1513 1513 1513 1513 1513 1513 1513 1513 1514 1514 1515 1514 1514 1513 1512 1512 1511 1511 1510 1509 1508 1509 1510 1510 1509 1509 1508 1508
1507 1508 1509 1511 1513 1514 1515 1516 1516 1515 1514 1514 1515 1515 1515 1514 1513 1513 1513 1513 1513 1512 1512 1513 1513 1513 1513 1513 1512 1512 1512 1511 1511 1510 1509 1508 1509 1509 1509 1509 1509 1509 1509
1507 1507 1508 1510 1512 1513 1514 1515 1514 1514 1513 1514 1515 1515 1515 1514 1513 1512 1512 1512 1512 1511 1511 1511 1512 1512 1512 1512 1512 1512 1512 1511 1511 1510 1510 1509 1508 1509 1509 1509 1509 1508 1508
1507 1507 1508 1510 1511 1512 1513 1514 1513 1513 1513 1513 1514 1515 1514 1513 1512 1511 1511 1510 1510 1509 1509 1510 1510 1510 1511 1511 1512 1512 1512 1512 1511 1510 1510 1509 1509 1509 1509 1509 1508 1508 1507
1506 1507 1508 1509 1510 1511 1512 1512 1513 1512 1512 1512 1514 1514 1514 1513 1512 1511 1510 1509 1509 1509 1508 1509 1509 1509 1510 1510 1511 1511 1512 1511 1511 1510 1510 1510 1510 1510 1509 1509 1508 1507 1507
1506 1506 1507 1509 1510 1510 1511 1511 1512 1511 1511 1512 1513 1513 1513 1512 1511 1510 1509 1509 1508 1508 1508 1508 1508 1508 1508 1509 1509 1510 1510 1511 1510 1510 1510 1510 1510 1510 1509 1508 1508 1507 1506
1505 1506 1507 1508 1509 1509 1509 1510 1511 1510 1510 1511 1512 1512 1512 1511 1511 1510 1509 1509 1509 1509 1508 1508 1507 1507 1507 1507 1508 1508 1509 1509 1508 1509 1509 1509 1509 1509 1508 1508 1507 1506 1505
1505 1505 1506 1507 1507 1507 1508 1509 1509 1509 1509 1510 1510 1510 1511 1510 1510 1509 1509 1509 1509 1508 1508 1507 1506 1506 1506 1506 1506 1507 1507 1507 1506 1507 1508 1508 1508 1508 1507 1507 1506 1505 1505
1504 1504 1505 1505 1506 1506 1507 1507 1508 1508 1508 1508 1509 1509 1509 1509 1509 1508 1508 1508 1508 1507 1507 1506 1505 1505 1504 1505 1505 1505 1506 1506 1505 1505 1506 1506 1506 1506 1506 1505 1505 1504 1503
1503 1504 1504 1504 1505 1505 1505 1506 1506 1507 1507 1507 1508 1508 1508 1508 1507 1507 1507 1506 1506 1506 1505 1504 1504 1503 1503 1503 1503 1504 1504 1504 1504 1503 1504 1504 1504 1504 1504 1503 1503 1502 1501
1502 1502 1503 1503 1503 1503 1504 1505 1505 1505 1506 1506 1507 1507 1507 1507 1506 1506 1505 1505 1505 1504 1504 1502 1502 1501 1501 1501 1501 1502 1502 1502 1502 1502 1502 1502 1502 1502 1502 1501 1501 1500 1500
1500 1501 1501 1501 1502 1502 1502 1503 1504 1504 1505 1505 1505 1505 1505 1505 1505 1504 1504 1503 1503 1502 1501 1500 1499 1499 1498 1498 1498 1499 1499 1499 1499 1499 1499 1499 1499 1499 1499 1498 1498 1497 1497
1498 1499 1499 1499 1500 1500 1500 1501 1502 1503 1503 1503 1504 1504 1503 1503 1503 1503 1502 1501 1500 1499 1499 1498 1497 1496 1496 1495 1496 1496 1496 1496 1496 1496 1496 1496 1495 1495 1495 1494 1494 1493 1493
1496 1496 1497 1498 1498 1498 1499 1500 1501 1501 1501 1502 1502 1502 1502 1501 1501 1501 1500 1499 1498 1497 1496 1496 1495 1494 1493 1493 1492 1492 1492 1492 1492 1492 1491 1491 1491 1490 1490 1490 1489 1488 1488
1494 1494 1494 1495 1496 1496 1497 1497 1498 1499 1499 1500 1500 1500 1500 1500 1499 1498 1498 1497 1496 1495 1494 1494 1493 1491 1490 1490 1489 1488 1488 1488 1488 1487 1487 1486 1486 1485 1485 1485 1484 1483 1482
1491 1492 1493 1492 1492 1493 1493 1493 1494 1496 1497 1498 1498 1498 1498 1497 1496 1496 1495 1494 1493 1492 1492 1491 1490 1488 1487 1486 1485 1484 1483 1483 1483 1482 1481 1481 1480 1479 1479 1478 1478 1477 1476
1489 1490 1490 1490 1490 1490 1490 1491 1491 1493 1494 1495 1495 1496 1495 1494 1493 1492 1491 1490 1490 1490 1489 1488 1487 1485 1483 1482 1481 1480 1479 1477 1476 1475 1474 1474 1473 1472 1471 1471 1470 1470 1469
1487 1487 1487 1488 1487 1487 1488 1488 1489 1489 1491 1491 1492 1492 1492 1491 1491 1490 1489 1488 1488 1487 1486 1484 1482 1480 1478 1477 1475 1474 1473 1471 1469 1468 1467 1466 1465 1464 1463 1463 1462 1462 1461
1482 1482 1483 1483 1484 1484 1485 1485 1486 1487 1488 1488 1489 1489 1489 1488 1488 1487 1485 1484 1484 1482 1480 1478 1476 1474 1472 1470 1469 1468 1466 1464 1462 1461 1458 1457 1457 1456 1455 1454 1453 1453 1452
1479 1478 1477 1478 1479 1480 1482 1483 1483 1484 1485 1485 1485 1485 1485 1485 1484 1482 1480 1479 1478 1476 1474 1472 1471 1469 1467 1465 1464 1461 1458 1456 1454 1452 1450 1449 1447 1446 1445 1444 1443 1441 1441
1477 1476 1475 1474 1474 1475 1477 1478 1480 1480 1481 1482 1482 1482 1481 1481 1479 1477 1475 1473 1472 1469 1467 1465 1463 1461 1459 1458 1456 1452 1449 1447 1444 1441 1440 1439 1437 1436 1435 1433 1432 1431 1430
1476 1475 1474 1473 1473 1473 1473 1475 1476 1478 1479 1479 1480 1479 1478 1477 1474 1472 1469 1467 1465 1462 1459 1457 1455 1453 1451 1452 1449 1445 1439 1436 1431 1431 1431 1429 1427 1426 1425 1424 1423 1421 1420
1477 1476 1475 1474 1473 1472 1472 1472 1473 1474 1475 1476 1476 1475 1473 1471 1469 1467 1464 1461 1458 1456 1453 1451 1449 1447 1444 1443 1441 1439 1434 1427 1424 1421 1421 1420 1419 1418 1416 1415 1414 1413 1412
1479 1478 1477 1476 1474 1473 1472 1472 1472 1472 1473 1473 1471 1470 1468 1466 1464 1461 1458 1455 1452 1449 1446 1444 1443 1440 1437 1433 1432 1429 1426 1422 1420 1413 1411 1410 1409 1407 1406 1405 1405 1404 1403
1482 1481 1480 1479 1477 1475 1474 1473 1472 1472 1471 1470 1469 1467 1465 1463 1460 1457 1453 1450 1447 1444 1441 1438 1436 1433 1430 1426 1423 1421 1417 1414 1411 1408 1402 1401 1399 1396 1395 1394 1393 1392 1391
1484 1483 1482 1481 1479 1478 1476 1475 1473 1472 1471 1469 1468 1466 1463 1461 1457 1454 1451 1447 1443 1440 1436 1433 1430 1427 1423 1420 1416 1413 1410 1406 1402 1400 1394 1390 1388 1385 1384 1382 1380 1379 1378